SV1IW Athens current weather conditions

sailwx.info

Wind from 192 at 2 knots gusting 4

Air temperature 27.8° C
Dewpoint 18.5° C

Last reported at 2014-Sep-23 00:00 UTC.
Time now 2014-Sep-23 12:20 UTC

Location: N 37°58' E 023°43'.
View on Google Maps.

See reports from other nearby stations

  
Tides and Currents Weather Stations Pressure Air Temp Water Temp Dewpoint Dewpoint Depression Visibility Wind Speed Wind Dir Waves Ship Positions
date/time (UTC)wind fromknots sea level pressurealtimeterstation pressurevisibilityair tempwater tempwave heightnotes
2014-Sep-23 00:00 192 2 gusting 4 27.8
2014-Sep-22 23:30 085 0 gusting 6 27.8
2014-Sep-22 23:00 229 0 gusting 5 27.8
2014-Sep-22 22:30 240 28.3
2014-Sep-22 22:00 253 28.3
2014-Sep-22 21:30 252 0 gusting 5 28.9
2014-Sep-22 21:00 247 2 gusting 5 28.9
2014-Sep-22 20:30 048 1 gusting 5 28.9
2014-Sep-22 20:00 176 2 gusting 10 28.9
2014-Sep-22 19:30 256 2 gusting 8 28.9
2014-Sep-22 19:00 252 1 gusting 7 28.9
2014-Sep-22 18:30 244 3 gusting 12 28.9
2014-Sep-22 18:00 163 2 gusting 13 28.9
2014-Sep-22 17:30 213 4 gusting 6 28.3
2014-Sep-22 17:00 277 2 gusting 6 28.3
2014-Sep-22 16:30 237 0 gusting 5 28.3
2014-Sep-22 16:00 194 3 gusting 7 28.9
2014-Sep-22 15:30 244 4 gusting 8 29.4
2014-Sep-22 15:00 205 4 gusting 8 30.0
2014-Sep-22 14:30 197 5 gusting 8 30.0
2014-Sep-22 14:00 170 4 gusting 6 30.6
2014-Sep-22 13:30 178 5 gusting 8 30.6
2014-Sep-22 13:00 165 4 gusting 7 30.6
2014-Sep-22 12:30 201 5 gusting 7 30.6
2014-Sep-22 12:00 196 4 gusting 7 30.6
2014-Sep-22 11:30 246 4 gusting 10 31.1
2014-Sep-22 11:00 148 5 gusting 8 30.6
2014-Sep-22 10:30 174 5 gusting 8 30.6
2014-Sep-22 10:00 194 5 gusting 10 29.4
2014-Sep-22 09:30 266 7 gusting 10 30.0
2014-Sep-22 09:00 253 6 gusting 8 29.4
2014-Sep-22 08:30 193 4 gusting 8 28.9
2014-Sep-22 08:00 180 4 gusting 7 28.3
2014-Sep-22 07:30 252 2 gusting 6 27.8
2014-Sep-22 07:00 242 0 gusting 5 27.2
2014-Sep-22 06:30 256 2 gusting 6 26.7
2014-Sep-22 06:00 349 5 gusting 6 23.3